Weather History for Connaught Airport, Ireland

Change the Weather History Date:

Tuesday, February 26, 2013

  Actual Average Record
Temperature  
Mean Temperature 34 °F -  
Max Temperature 39 °F - - ()
Min Temperature 30 °F - - ()
Degree Days  
Heating Degree Days 30    
Moisture  
Dew Point 32 °F    
Average Humidity 87    
Maximum Humidity 93    
Minimum Humidity 79    
Precipitation  
Precipitation 0.00 in - - ()
Sea Level Pressure  
Sea Level Pressure 30.57 in    
Wind  
Wind Speed 6 mph ()    
Max Wind Speed 9 mph    
Max Gust Speed -    
Visibility 6.6 miles    
Events      
T = Trace of Precipitation, MM = Missing Value Source: Averaged Metar Reports

Daily Weather History Graph

Daily Weather History Graph

Search for Another Location

Airport:

Trip Planner

Search our weather history database for the weather conditions in past years. The results will help you decide how hot, cold, wet, or windy it might be!

Date:

Astronomy

Feb. 26, 2013 Rise Set
Actual Time 7:30 AM GMT 6:06 PM GMT
Civil Twilight 6:54 AM GMT 6:42 PM GMT
Nautical Twilight 6:13 AM GMT 7:23 PM GMT
Astronomical Twilight 5:33 AM GMT 8:04 PM GMT
Moon 7:26 PM GMT (2/26) 7:12 AM GMT (2/26)
Length of Visible Light 11h 47m
Length of Day
10h 36m
Full, 100% of the Moon is Illuminated
Feb 26
Full
Mar 4
Last Quarter
Mar 11
New
Mar 19
First Quarter
Mar 27
Full

Hourly Weather History & Observations

Time (GMT) Temp. Windchill Dew Point Humidity Pressure Visibility Wind Dir Wind Speed Gust Speed Precip Events Conditions
12:00 AM 32 °F - 29 °F 86% 30.60 in - ESE 4.5 mph - -  
6:00 AM 33 °F - 29 °F 79% 30.60 in 19 mi East 6.7 mph - -   Partly Cloudy
6:00 AM 32.0 °F 26.4 °F 28.4 °F 87% 30.54 in 6.2 mi East 5.8 mph - N/A   Scattered Clouds
7:00 AM 32.0 °F 25.6 °F 28.4 °F 87% 30.54 in - East 6.9 mph - N/A   Clear
8:00 AM 32.0 °F 25.6 °F 30.2 °F 93% 30.57 in - East 6.9 mph - N/A   Clear
8:30 AM 33.8 °F 27.7 °F 30.2 °F 87% 30.57 in - East 6.9 mph - N/A   Clear
9:00 AM 33.8 °F 27.0 °F 32.0 °F 93% 30.57 in 6.2 mi ESE 8.1 mph - N/A   Mostly Cloudy
9:30 AM 33.8 °F 26.4 °F 32.0 °F 93% 30.57 in 5.6 mi ESE 9.2 mph - N/A   Mostly Cloudy
10:00 AM 33.8 °F 27.7 °F 32.0 °F 93% 30.57 in 4.3 mi ESE 6.9 mph - N/A   Mostly Cloudy
10:30 AM 35.6 °F 29.2 °F 32.0 °F 87% 30.57 in 4.3 mi ESE 8.1 mph - N/A   Mostly Cloudy
11:00 AM 35.6 °F 29.9 °F 33.8 °F 93% 30.57 in 5.0 mi ESE 6.9 mph - N/A   Mostly Cloudy
11:30 AM 35.6 °F 28.6 °F 33.8 °F 93% 30.57 in 5.0 mi ESE 9.2 mph - N/A   Overcast
12:00 PM 36 °F - 34 °F 87% 30.63 in 5 mi ESE 6.7 mph - -   Mist
12:00 PM 35.6 °F 30.7 °F 33.8 °F 93% 30.57 in 5.0 mi ESE 5.8 mph - N/A   Mostly Cloudy
12:30 PM 37.4 °F 31.4 °F 33.8 °F 87% 30.57 in 5.0 mi East 8.1 mph - N/A   Mostly Cloudy
1:00 PM 37.4 °F 31.4 °F 33.8 °F 87% 30.57 in 6.2 mi SE 8.1 mph - N/A   Mostly Cloudy
1:30 PM 37.4 °F 32.8 °F 33.8 °F 87% 30.57 in 6.2 mi SE 5.8 mph - N/A   Overcast
2:00 PM 37.4 °F 32.1 °F 33.8 °F 87% 30.57 in 6.2 mi ESE 6.9 mph - N/A   Overcast
2:30 PM 37.4 °F 32.1 °F 33.8 °F 87% 30.57 in 6.2 mi ESE 6.9 mph - N/A   Overcast
3:00 PM 37.4 °F 32.8 °F 33.8 °F 87% 30.57 in 6.2 mi East 5.8 mph - N/A   Mostly Cloudy
3:30 PM 37.4 °F 32.8 °F 33.8 °F 87% 30.57 in 6.2 mi East 5.8 mph - N/A   Mostly Cloudy
4:00 PM 39.2 °F 34.2 °F 33.8 °F 81% 30.57 in 6.2 mi ESE 6.9 mph - N/A   Mostly Cloudy
4:30 PM 39.2 °F 37.0 °F 33.8 °F 81% 30.57 in 6.2 mi ESE 3.5 mph - N/A   Mostly Cloudy
5:00 PM 39.2 °F - 33.8 °F 81% 30.57 in 6.2 mi East 2.3 mph - N/A   Mostly Cloudy
6:00 PM 38 °F - 35 °F 82% 30.62 in 12 mi NNE 2.2 mph - -   Overcast